Twin Falls, ID

11:34 AM MST on December 15, 2017 (GMT -0700)
Joslin Field-Magic Valley Regional

Weather History for KTWF - November, 2012

Change the Weather History Date:

Friday, November 2, 2012

  Actual Average Record
Temperature  
Mean Temperature 50 °F -  
Max Temperature 62 °F 56 °F 73 °F (1988)
Min Temperature 37 °F 32 °F 9 °F (2002)
Degree Days  
Heating Degree Days 15 21  
Month to date heating degree days 27 42  
Since 1 July heating degree days 459 661  
Cooling Degree Days 0 0  
Month to date cooling degree days 0 0  
Year to date cooling degree days 970 680  
Moisture  
Dew Point 29 °F    
Average Humidity 50    
Maximum Humidity 70    
Minimum Humidity 29    
Precipitation  
Precipitation 0.00 in 0.05 in 1.06 in (2015)
Month to date precipitation T 0.09  
Year to date precipitation 7.38 8.34  
Sea Level Pressure  
Sea Level Pressure 30.07 in    
Wind  
Wind Speed 7 mph (South)    
Max Wind Speed 14 mph    
Max Gust Speed 16 mph    
Visibility 10 miles    
Events      
T = Trace of Precipitation, MM = Missing Value Source: NWS Daily Summary

Daily Weather History Graph

Daily Weather History Graph

Search for Another Location

Airport or City:

Trip Planner

Search our weather history database for the weather conditions in past years. The results will help you decide how hot, cold, wet, or windy it might be!

Date:

Astronomy

Nov. 02, 2012 Rise Set
Actual Time 8:13 AM MDT 6:28 PM MDT
Civil Twilight 7:44 AM MDT 6:58 PM MDT
Nautical Twilight 7:10 AM MDT 7:31 PM MDT
Astronomical Twilight 6:37 AM MDT 8:04 PM MDT
Moon 9:17 PM MDT (11/2) 11:39 AM MDT (11/2)
Length of Visible Light 11h 14m
Length of Day
10h 15m
Waning Gibbous, 87% of the Moon is Illuminated
Nov 2
Waning Gibbous
Nov 6
Last Quarter
Nov 13
New
Nov 20
First Quarter
Nov 28
Full

Hourly Weather History & Observations

Time (MDT) Temp. Windchill Dew Point Humidity Pressure Visibility Wind Dir Wind Speed Gust Speed Precip Events Conditions
12:53 AM 44.1 °F 38.6 °F 28.9 °F 55% 30.01 in 10.0 mi South 10.4 mph - N/A   Scattered Clouds
1:53 AM 46.0 °F 41.0 °F 30.0 °F 54% 30.01 in 10.0 mi SSW 10.4 mph - N/A   Mostly Cloudy
2:53 AM 43.0 °F 37.7 °F 30.0 °F 60% 30.02 in 10.0 mi South 9.2 mph - N/A   Clear
3:53 AM 41.0 °F 35.2 °F 28.9 °F 62% 30.03 in 10.0 mi South 9.2 mph - N/A   Scattered Clouds
4:53 AM 42.1 °F 36.6 °F 30.0 °F 62% 30.03 in 10.0 mi South 9.2 mph - N/A   Clear
5:53 AM 39.0 °F 32.3 °F 28.9 °F 67% 30.06 in 10.0 mi South 10.4 mph - N/A   Clear
6:53 AM 39.9 °F 33.4 °F 28.9 °F 65% 30.08 in 10.0 mi South 10.4 mph - N/A   Clear
7:53 AM 37.9 °F 30.0 °F 28.0 °F 68% 30.10 in 10.0 mi South 12.7 mph - N/A   Clear
8:53 AM 39.0 °F 31.4 °F 28.9 °F 67% 30.10 in 10.0 mi South 12.7 mph - N/A   Clear
9:53 AM 46.9 °F - 32.0 °F 56% 30.10 in 10.0 mi South 10.4 mph - N/A   Clear
10:53 AM 53.1 °F - 32.0 °F 45% 30.10 in 10.0 mi SSW 8.1 mph - N/A   Clear
11:53 AM 54.0 °F - 34.0 °F 47% 30.11 in 10.0 mi Calm Calm - N/A   Clear
12:53 PM 57.0 °F - 34.0 °F 42% 30.09 in 10.0 mi NE 3.5 mph - N/A   Clear
1:53 PM 59.0 °F - 33.1 °F 38% 30.06 in 10.0 mi North 4.6 mph - N/A   Clear
2:53 PM 61.0 °F - 28.0 °F 29% 30.04 in 10.0 mi North 4.6 mph - N/A   Clear
3:53 PM 61.0 °F - 28.0 °F 29% 30.04 in 10.0 mi NW 5.8 mph - N/A   Clear
4:53 PM 57.9 °F - 27.0 °F 31% 30.04 in 10.0 mi NW 8.1 mph - N/A   Clear
5:53 PM 55.9 °F - 28.0 °F 34% 30.05 in 10.0 mi NNW 3.5 mph - N/A   Clear
6:53 PM 48.0 °F - 28.0 °F 46% 30.07 in 10.0 mi Calm Calm - N/A   Clear
7:53 PM 39.9 °F - 28.0 °F 63% 30.11 in 10.0 mi Calm Calm - N/A   Clear
8:53 PM 39.0 °F 34.8 °F 28.0 °F 65% 30.12 in 10.0 mi SE 5.8 mph - N/A   Clear
9:53 PM 39.9 °F 35.1 °F 28.0 °F 63% 30.09 in 10.0 mi SE 6.9 mph - N/A   Clear
10:53 PM 39.0 °F 34.8 °F 28.0 °F 65% 30.09 in 10.0 mi SE 5.8 mph - N/A   Clear
11:53 PM 39.9 °F 34.5 °F 28.0 °F 63% 30.09 in 10.0 mi South 8.1 mph - N/A   Clear